Regional Weather Roundup
Issued by NWS New Orleans/Baton Rouge, LA

Home | Current Version | Previous Version | Text Only | Print | Product List | Glossary On
Versions: 1 2 3 4 5 6 7 8 9 10 11 12 13 14 15 16 17 18 19 20 21 22 23 24 25 26 27 28 29 30 31 32 33 34 35 36 37 38 39 40 41 42 43 44 45 46 47 48 49 50
000
ASUS44 KLIX 300012
RWRLIX
NEW ORLEANS REGIONAL WEATHER ROUNDUP
NATIONAL WEATHER SERVICE NEW ORLEANS LA
700 PM CDT WED JUL 29 2015

NOTE: "FAIR" INDICATES FEW OR NO CLOUDS BELOW 12,000 FEET WITH NO
      SIGNIFICANT WEATHER AND/OR OBSTRUCTIONS TO VISIBILITY.
      SKY/WX - SKY CONDITION AND SIGNIFICANT WEATHER.
      TMP - AIR TEMPERATURE.     DP    - DEWPOINT TEMPERATURE.
      RH  - RELATIVE HUMIDITY.   PRES  - PRESSURE.
      HI  - HEAT INDEX.          WCI   - WIND CHILL INDEX.

*  THESE STATIONS ARE NOT NWS OR FAA STATIONS AND ARE NOT UNDER
   NWS QUALITY CONTROL.

LAZ038-040-048-061>063-065>067-069-300100-
SOUTHEAST LOUISIANA

CITY           SKY/WX    TMP DP  RH WIND       PRES   REMARKS
N.O. AUDUBON     N/A     82  76  81 MISG        N/A
6HR MIN TEMP:  82; 6HR MAX TEMP: 101; 6HR PCP:  0.10;

N.O. INTL ARPT CLOUDY    87  70  56 NE28G40   30.00R THUNDER
6HR MIN TEMP:  87; 6HR MAX TEMP:  99;

N.O. LAKEFRONT HVY RAIN  76  75  97 NE43G60   30.04R VSB 1/4
6HR MIN TEMP:  78; 6HR MAX TEMP:  95; 6HR PCP:  0.53;

N.O. DOWNTOWN* MOCLDY    81  75  83 E6G21     30.00R
6HR MIN TEMP:  79; 6HR MAX TEMP: 100; 6HR PCP:  0.23;

RESERVE*         N/A     89  73  60 W5        29.98R HX  97
6HR MIN TEMP:  89; 6HR MAX TEMP: 101;

SLIDELL        TSTM      75  73  93 SW13      29.98F
6HR MIN TEMP:  74; 6HR MAX TEMP:  99; 6HR PCP:  1.20;

BATON ROUGE    CLOUDY    88  73  61 CALM      29.98R HX  95
6HR MIN TEMP:  87; 6HR MAX TEMP:  99;

BOOTHVILLE     MOCLDY    89  76  65 S8        29.98R HX 100
6HR MIN TEMP:  89; 6HR MAX TEMP:  95;

BELLE CHASSE   TSTM      77  72  84 NW10G18   29.98R
6HR MIN TEMP:  77; 6HR MAX TEMP:  96; 6HR PCP:  0.04;

BOGALUSA*      TSTM      78  72  80 S7        29.98F
6HR MIN TEMP:  76; 6HR MAX TEMP:  99; 6HR PCP:  0.73;

GALLIANO*      NOT AVBL
NEW ROADS*     MOCLDY   N/A N/A N/A NE3       29.98R
GONZALES*        N/A     83  74  74 CALM      29.98R
6HR MIN TEMP:  82; 6HR MAX TEMP:  98;

HAMMOND*       PTSUNNY   91  73  55 NW5       29.99R HX 100
HOUMA*         MOSUNNY   86  75  70 SW6       29.98R HX  95
PORT FOURCHON* NOT AVBL

$$

MSZ070-080>082-300100-
SOUTHERN MISSISSIPPI

CITY           SKY/WX    TMP DP  RH WIND       PRES   REMARKS
MCCOMB         PTSUNNY   84  75  74 W5        29.99R
6HR MIN TEMP:  80; 6HR MAX TEMP:  92; 6HR PCP:  0.01;

GULFPORT       CLOUDY    83  73  72 S3        29.96S
6HR MIN TEMP:  81; 6HR MAX TEMP:  99; 6HR PCP: TRACE;

BILOXI         CLOUDY    82  76  83 NE8       29.98R
6HR MIN TEMP:  78; 6HR MAX TEMP:  97; 6HR PCP:  1.12;

PASCAGOULA     CLOUDY    83  78  85 NE3       29.99R
6HR MIN TEMP:  77; 6HR MAX TEMP:  97; 6HR PCP:  0.24;

STENNIS ARPT*  PTSUNNY   75  72  88 VRB3      29.98R

$$

COASTAL OBSERVATIONS
LAKE AND NEARSHORE STATIONS

STATION/POSITION TIME  TEMP    WIND        PRES    WAVE
                       AIR SEA DIR/SP/G            HT/PER
                 (UTC) (F)     (DEG/KT/KT) (MB)    (FT/S)
PASCAGOULA       2300   85     260/  5/  7 1014.3
WAVELAND YACHT   2300   78 91  250/  7/ 10 1014.9
GRAND ISLE       2300   90 90  220/  7/ 10 1014.9
SOUTHWEST PASS   2300   90 87  220/  7/  8 1015.6
NEW CANAL        2300   93 91  290/  2/  7 1012.9
SHELL BEACH      2300   91 89  150/ 12/ 15 1013.3

OFFSHORE STATIONS

STATION/POSITION TIME  TEMP    WIND        PRES    WAVE
                       AIR SEA DIR/SP/G            HT/PER
                 (UTC) (F)     (DEG/KT/KT) (MB)    (FT/S)
64 S DAUPHIN ISL 2350   88 92  250/  6/  8 1015.4    1/ 4

$$



USA.gov is the U.S. government's official web portal to all federal, state and local government web resources and services.